Change the Weather History Date:

Thursday, March 13, 2014

  Actual Average Record
Temperature  
Mean Temperature 44 °F 42 °F  
Max Temperature 70 °F 58 °F 83 °F (1933)
Min Temperature 18 °F 25 °F 2 °F (1948)
Degree Days  
Heating Degree Days 22 23  
Month to date heating degree days 332  
Since 1 July heating degree days 4643  
Cooling Degree Days 0 0  
Month to date cooling degree days 0  
Year to date cooling degree days 0  
Moisture  
Dew Point 16 °F    
Average Humidity 42    
Maximum Humidity 88    
Minimum Humidity 9    
Precipitation  
Precipitation 0.00 in 0.03 in 0.41 in (1937)
Month to date precipitation 0.36  
Year to date precipitation 1.03  
Sea Level Pressure  
Sea Level Pressure 29.93 in    
Wind  
Wind Speed 5 mph (WSW)    
Max Wind Speed 16 mph    
Max Gust Speed 24 mph    
Visibility 10 miles    
Events      
T = Trace of Precipitation, MM = Missing Value Source: NWS Daily Summary

Daily Weather History Graph

Daily Weather History Graph

Search for Another Location

Airport or City:

Trip Planner

Search our weather history database for the weather conditions in past years. The results will help you decide how hot, cold, wet, or windy it might be!

Date:

Astronomy

Mar. 13, 2014 Rise Set
Actual Time 7:04 AM MDT 6:56 PM MDT
Civil Twilight 6:38 AM MDT 7:22 PM MDT
Nautical Twilight 6:08 AM MDT 7:52 PM MDT
Astronomical Twilight 5:37 AM MDT 8:23 PM MDT
Moon 4:25 PM MDT (3/13) 5:10 AM MDT (3/13)
Length of Visible Light 12h 43m
Length of Day
11h 51m
Waxing Gibbous, 92% of the Moon is Illuminated
Mar 13
Waxing Gibbous
Mar 16
Full
Mar 23
Last Quarter
Mar 30
New
Apr 7
First Quarter

Hourly Weather History & Observations

Time (MDT) Temp. Windchill Dew Point Humidity Pressure Visibility Wind Dir Wind Speed Gust Speed Precip Events Conditions
12:53 AM 28.0 °F 24.2 °F 18.0 °F 66% 30.17 in 10.0 mi West 3.5 mph - N/A   Clear
1:53 AM 28.0 °F 24.2 °F 18.0 °F 66% 30.15 in 10.0 mi WSW 3.5 mph - N/A   Clear
2:53 AM 19.0 °F 11.1 °F 14.0 °F 81% 30.15 in 10.0 mi SW 5.8 mph - N/A   Clear
3:53 AM 21.9 °F 17.2 °F 17.1 °F 82% 30.12 in 10.0 mi SSW 3.5 mph - N/A   Clear
4:53 AM 19.9 °F 14.9 °F 15.1 °F 81% 30.11 in 10.0 mi SSW 3.5 mph - N/A   Clear
5:53 AM 19.9 °F - 15.1 °F 81% 30.11 in 10.0 mi Calm Calm - N/A   Clear
6:53 AM 18.0 °F 12.7 °F 15.1 °F 88% 30.12 in 10.0 mi SW 3.5 mph - N/A   Clear
7:53 AM 24.1 °F - 19.0 °F 81% 30.13 in 10.0 mi Calm Calm - N/A   Clear
8:53 AM 32.0 °F - 24.1 °F 73% 30.11 in 10.0 mi Calm Calm - N/A   Clear
9:53 AM 44.1 °F 40.8 °F 23.0 °F 43% 30.07 in 10.0 mi WSW 5.8 mph - N/A   Clear
10:53 AM 50.0 °F - 21.9 °F 33% 30.01 in 10.0 mi West 5.8 mph - N/A   Clear
11:53 AM 57.9 °F - 19.0 °F 22% 29.95 in 10.0 mi SW 11.5 mph - N/A   Clear
12:53 PM 64.0 °F - 15.1 °F 15% 29.89 in 10.0 mi WSW 11.5 mph 24.2 mph N/A   Clear
1:53 PM 66.0 °F - 9.0 °F 11% 29.83 in 10.0 mi WSW 13.8 mph 21.9 mph N/A   Clear
2:53 PM 69.1 °F - 9.0 °F 10% 29.80 in 10.0 mi WSW 11.5 mph - N/A   Clear
3:53 PM 69.1 °F - 6.1 °F 9% 29.78 in 10.0 mi WNW 13.8 mph - N/A   Clear
4:53 PM 69.1 °F - 8.1 °F 9% 29.75 in 10.0 mi West 13.8 mph - N/A   Clear
5:53 PM 68.0 °F - 9.0 °F 10% 29.73 in 10.0 mi West 5.8 mph - N/A   Clear
6:53 PM 64.0 °F - 10.0 °F 12% 29.74 in 10.0 mi Calm Calm - N/A   Clear
7:53 PM 51.1 °F - 21.9 °F 32% 29.75 in 10.0 mi Calm Calm - N/A   Clear
8:53 PM 48.9 °F - 25.0 °F 39% 29.74 in 10.0 mi SSW 6.9 mph - N/A   Clear
9:53 PM 51.1 °F - 24.1 °F 35% 29.72 in 10.0 mi SSW 9.2 mph - N/A   Partly Cloudy
10:53 PM 55.0 °F - 19.0 °F 24% 29.72 in 10.0 mi NNW 9.2 mph - N/A   Scattered Clouds
11:34 PM 55.9 °F - 15.1 °F 20% 29.80 in 10.0 mi NE 16.1 mph - N/A   Mostly Cloudy
11:53 PM 55.0 °F - 14.0 °F 20% 29.72 in 10.0 mi NE 9.2 mph - N/A   Mostly Cloudy